Regional Weather Roundup
Issued by NWS Green Bay, WI

Home | Current Version | Previous Version | Text Only | Print | Product List | Glossary On
Versions: 1 2 3 4 5 6 7 8 9 10 11 12 13 14 15 16 17 18 19 20 21 22 23 24 25 26 27 28 29 30 31 32 33 34 35 36 37 38 39 40 41 42 43 44 45 46 47 48 49 50
000
ASUS43 KGRB 301000
RWRGRB

NORTH-CENTRAL AND NORTHEAST WISCONSIN REGIONAL WEATHER ROUNDUP
NATIONAL WEATHER SERVICE GREEN BAY WI
500 AM CDT SAT APR 30 2016

WIZ005-009-010>012-018-019-301100-
NORTH CENTRAL WISCONSIN

CITY           SKY/WX    TMP DP  RH WIND       PRES   REMARKS
IRONWOOD         N/A     34  32  93 E5        30.18F
MANITOWISH WTR NOT AVBL
ARBOR VITAE    NOT AVBL
EAGLE RIVER    NOT AVBL
LAND O LAKES   NOT AVBL
RHINELANDER    CLOUDY    36  28  73 E6        30.18R
PHILLIPS       CLEAR     33  30  91 CALM      30.16R
ANTIGO         NOT AVBL
TOMAHAWK       NOT AVBL
MERRILL        NOT AVBL
$$

WIZ013-073-301100-
NORTHEAST WISCONSIN

CITY           SKY/WX    TMP DP  RH WIND       PRES   REMARKS
IRON MOUNTAIN  CLEAR     34  27  75 NW3       30.16F
MARINETTE      CLEAR     37  28  70 NE7       30.16R
$$

WIZ017-030-035>037-045-301100-
CENTRAL WISCONSIN

CITY           SKY/WX    TMP DP  RH WIND       PRES   REMARKS
MEDFORD        NOT AVBL
WAUSAU         CLOUDY    39  28  64 CALM      30.13R
MOSINEE        NOT AVBL
MARSHFIELD     CLOUDY    39  31  72 NE7       30.11S
WISC RAPIDS    PTCLDY    36  30  79 E5        30.15R
STEVENS POINT  NOT AVBL
WAUPACA        MOCLDY    37  32  84 CALM      30.15R
SHAWANO        PTCLDY    41  32  70 NE8       30.16S
CLINTONVILLE   NOT AVBL
WAUTOMA        CLOUDY    36  32  85 CALM      30.14R
$$

WIZ038-039-048-051-301100-
FOX VALLEY

CITY           SKY/WX    TMP DP  RH WIND       PRES   REMARKS
NWS GREEN BAY  CLOUDY    42  37  82 NE10      30.15R
APPLETON       NOT AVBL
OSHKOSH        PTCLDY    43  31  62 NE5       30.13R
FOND DU LAC    CLOUDY    36  29  75 CALM      30.12R
$$

WIZ022-050-052-301100-
EAST CENTRAL WISCONSIN

CITY           SKY/WX    TMP DP  RH WIND       PRES   REMARKS
EPHRAIM        NOT AVBL
STURGEON BAY   CLEAR     39  30  70 NE7       30.18R
MANITOWOC      NOT AVBL
SHEBOYGAN      CLOUDY    34  28  79 NE7       30.13R
$$

LMZ563-521-522-541>543-301100-
LAKESHORE

STATION/POSITION TIME  TEMP    WIND        PRES    VSBY  WAVE
                       AIR SEA DIR/SP/G                  HT/PER
                 (UTC) (F)     (DEG/KT/KT) (MB)    (MI)  (FT/S)
SHEBOYGAN LKSHOR 0900   43      20/ 10/ 10 1020.4F
KEWAUNEE LKSHORE 0900   42      30/  9/ 13 1019.7F
ALGOMA MARINA    0915           40/ 17/ 21   N/A
NORTHPORT PIER   0901   40      CALM  /  9 1021.7F
N MID LAKE BUOY  0850   40 38   40/ 10/ 12 1022.2F         1
CHAMBERS ISLAND  0900   40      20/ 10/ 13 1021.7F
MENOMINEE LKSHOR 0900   42      20/ 14/ 17 1020.2F
$$




USA.gov is the U.S. government's official web portal to all federal, state and local government web resources and services.